Regional Weather Roundup
Issued by NWS

Home | Current Version | Previous Version | Text Only | Print | Product List | Glossary On
Versions: 1 2 3 4 5 6 7 8 9 10 11 12 13 14 15 16 17 18 19 20 21 22 23 24 25 26 27 28 29 30 31 32 33 34 35 36 37 38 39 40 41 42 43 44 45 46 47 48 49 50
000
ASUS43 KLSX 240810
RWRMO

WEATHER SUMMARY FOR MISSOURI
NATIONAL WEATHER SERVICE SPRINGFIELD MO
300 AM CDT FRI MAR 24 2017

NOTE: "FAIR" INDICATES FEW OR NO CLOUDS BELOW 12,000 FEET WITH NO
       SIGNIFICANT WEATHER AND/OR OBSTRUCTIONS TO VISIBILITY.
       CURRENT SKY AND/OR WEATHER CONDITIONS ARE NOT AVAILABLE FOR
       CHILLICOTHE AND FARMINGTON.

MOZ001>031-035>038-043-044-053-054-240900-
...NORTHERN AND WESTERN MISSOURI...

CITY           SKY/WX    TMP DP  RH WIND       PRES   REMARKS
KANSAS CTY INT CLOUDY    67  49  52 S12       29.82R
KANSAS C DTWN  CLOUDY    69  49  48 S10       29.82R
LEE`S SUMMIT   MOCLDY    68  49  50 SW15      29.85R
ST JOSEPH      CLOUDY    65  50  58 S8        29.79S
CHILLICOTHE      N/A     59  47  64 CALM      29.84R
KIRKSVILLE     PTCLDY    63  32  31 S10       29.86R

$$
MOZ066>068-077>081-088>096-101>105-240900-
...SOUTHWEST MISSOURI...

CITY           SKY/WX    TMP DP  RH WIND       PRES   REMARKS
SPRINGFIELD    CLEAR     65  47  52 S16G24    29.87F
JOPLIN         CLEAR     70  47  43 S21G38    29.83S
BRANSON        CLEAR     68  45  42 S10G18    29.94S

$$
MOZ032>034-039>042-045>050-055>058-069>072-240900-
...CENTRAL MISSOURI...

CITY           SKY/WX    TMP DP  RH WIND       PRES   REMARKS
COLUMBIA       PTCLDY    62  52  69 S10       29.87F
JEFFERSON CITY PTCLDY    70  51  51 S8        29.88F
ROLLA          PTCLDY    67  50  54 S18G26    29.90F
SEDALIA        CLOUDY    68  49  50 S20       29.83F
WHITEMAN AFB   PTCLDY    68  48  49 S16G24    29.81R
WARRENSBURG    MOCLDY    68  45  42 S14G21    29.82R
OSAGE BEACH    CLEAR    N/A N/A N/A S12       29.89F

$$
MOZ051-052-059>065-240900-
...EAST CENTRAL MISSOURI...

CITY           SKY/WX    TMP DP  RH WIND       PRES   REMARKS
ST LOUIS INTL  CLOUDY    54  44  69 VRB6      29.94F
SPIRIT OF STL  PTCLDY    64  51  62 VRB6      29.91F
ST CHARLES     PTCLDY    46  43  89 E8        29.93F

$$
MOZ072>076-082>087-097>100-106>115-240900-
...SOUTH CENTRAL AND SOUTHEAST MISSOURI...

CITY           SKY/WX    TMP DP  RH WIND       PRES   REMARKS
CAPE GIRARDEAU CLEAR     64  51  62 S15       30.03F
FARMINGTON     CLEAR     63  51  65 S15G23    29.98F
POPLAR BLUFF   CLEAR     63  53  70 S9        30.02F
WEST PLAINS    CLEAR     64  50  60 S12       29.98F

$$



USA.gov is the U.S. government's official web portal to all federal, state and local government web resources and services.